Holdrege, NE

6:42 AM CST on November 18, 2017 (GMT -0600)
Brewster

Weather History for KHDE - March, 2012

Change the Weather History Date:

Saturday, March 31, 2012

  Actual Average Record
Temperature  
Mean Temperature 68 °F -  
Max Temperature 85 °F 57 °F 88 °F (1978)
Min Temperature 50 °F 30 °F 6 °F (1987)
Cooling Degree Days 2    
Growing Degree Days 18 (Base 50)    
Moisture  
Dew Point 42 °F    
Average Humidity 44    
Maximum Humidity 74    
Minimum Humidity 18    
Precipitation  
Precipitation 0.00 in - - ()
Sea Level Pressure  
Sea Level Pressure 29.75 in    
Wind  
Wind Speed 7 mph (SW)    
Max Wind Speed 17 mph    
Max Gust Speed 22 mph    
Visibility 10 miles    
Events      
Averages and records for this station are not official NWS values.
T = Trace of Precipitation, MM = Missing Value Source: NWS Daily Summary

Daily Weather History Graph

Daily Weather History Graph

Search for Another Location

Airport or City:

Trip Planner

Search our weather history database for the weather conditions in past years. The results will help you decide how hot, cold, wet, or windy it might be!

Date:

Astronomy

Mar. 31, 2012 Rise Set
Actual Time 7:21 AM CDT 8:01 PM CDT
Civil Twilight 6:54 AM CDT 8:28 PM CDT
Nautical Twilight 6:21 AM CDT 9:01 PM CDT
Astronomical Twilight 5:48 AM CDT 9:35 PM CDT
Moon 1:29 PM CDT (3/31) 3:20 AM CDT (3/31)
Length of Visible Light 13h 34m
Length of Day
12h 39m
First Quarter, 59% of the Moon is Illuminated
Mar 31
First Quarter
Apr 6
Full
Apr 13
Last Quarter
Apr 21
New
Apr 29
First Quarter

Hourly Weather History & Observations

Time (CDT) Temp. Dew Point Humidity Pressure Visibility Wind Dir Wind Speed Gust Speed Precip Events Conditions
12:15 AM 53.8 °F 36.5 °F 52% 29.77 in 10.0 mi Calm Calm - N/A   Clear
12:35 AM 54.3 °F 37.2 °F 52% 29.77 in 10.0 mi ESE 3.5 mph - N/A   Clear
12:55 AM 50.5 °F 36.7 °F 59% 29.77 in 10.0 mi Calm Calm - N/A   Clear
1:15 AM 51.4 °F 36.3 °F 56% 29.77 in 10.0 mi Calm Calm - N/A   Clear
1:35 AM 55.0 °F 37.4 °F 51% 29.77 in 10.0 mi WSW 3.5 mph - N/A   Clear
1:55 AM 53.6 °F 37.8 °F 55% 29.76 in 10.0 mi SSW 3.5 mph - N/A   Clear
2:15 AM 52.9 °F 36.9 °F 55% 29.77 in 10.0 mi WSW 3.5 mph - N/A   Clear
2:35 AM 55.2 °F 36.0 °F 48% 29.76 in 10.0 mi SSW 5.8 mph - N/A   Clear
2:55 AM 56.8 °F 35.4 °F 45% 29.77 in 10.0 mi SW 8.1 mph - N/A   Clear
3:15 AM 56.3 °F 37.0 °F 48% 29.76 in 10.0 mi SW 10.4 mph - N/A   Clear
3:35 AM 56.3 °F 41.0 °F 57% 29.76 in 10.0 mi SW 9.2 mph - N/A   Clear
3:55 AM 57.9 °F 44.1 °F 60% 29.76 in 10.0 mi SW 8.1 mph - N/A   Clear
4:15 AM 57.6 °F 46.2 °F 66% 29.76 in 10.0 mi SW 9.2 mph - N/A   Clear
4:35 AM 57.2 °F 47.5 °F 70% 29.76 in 10.0 mi SW 6.9 mph - N/A   Clear
4:55 AM 56.5 °F 47.5 °F 72% 29.76 in 10.0 mi SW 5.8 mph - N/A   Clear
5:15 AM 56.7 °F 48.0 °F 73% 29.76 in 10.0 mi SW 6.9 mph - N/A   Clear
5:35 AM 55.8 °F 47.5 °F 74% 29.76 in 10.0 mi SW 8.1 mph - N/A   Clear
5:55 AM 55.4 °F 47.3 °F 74% 29.77 in 10.0 mi SW 6.9 mph - N/A   Clear
6:15 AM 55.4 °F 46.8 °F 73% 29.78 in 10.0 mi SW 8.1 mph - N/A   Clear
6:35 AM 54.5 °F 46.4 °F 74% 29.78 in 10.0 mi SW 9.2 mph - N/A   Clear
6:55 AM 54.3 °F 45.9 °F 73% 29.79 in 10.0 mi SW 11.5 mph - N/A   Clear
7:15 AM 54.3 °F 46.2 °F 74% 29.79 in 10.0 mi SW 11.5 mph - N/A   Clear
7:35 AM 56.7 °F 46.9 °F 70% 29.79 in 10.0 mi WSW 13.8 mph - N/A   Clear
7:55 AM 57.2 °F 47.1 °F 69% 29.79 in 10.0 mi WSW 12.7 mph - N/A   Clear
8:15 AM 57.2 °F 46.4 °F 67% 29.79 in 10.0 mi SW 12.7 mph - N/A   Clear
8:35 AM 58.8 °F 45.5 °F 61% 29.80 in 10.0 mi WSW 11.5 mph - N/A   Clear
8:55 AM 60.1 °F 44.8 °F 57% 29.80 in 10.0 mi WSW 11.5 mph 18.4 mph N/A   Clear
9:15 AM 62.8 °F 42.1 °F 47% 29.80 in 10.0 mi West 11.5 mph - N/A   Clear
9:35 AM 64.0 °F 40.5 °F 42% 29.81 in 10.0 mi West 11.5 mph - N/A   Clear
9:55 AM 65.5 °F 40.3 °F 40% 29.80 in 10.0 mi WSW 15.0 mph - N/A   Clear
10:15 AM 65.8 °F 40.3 °F 39% 29.81 in 10.0 mi WSW 10.4 mph - N/A   Clear
10:35 AM 68.0 °F 41.5 °F 38% 29.80 in 10.0 mi WSW 6.9 mph - N/A   Clear
10:55 AM 71.2 °F 40.1 °F 32% 29.80 in 10.0 mi West 8.1 mph - N/A   Clear
11:15 AM 73.2 °F 40.1 °F 30% 29.81 in 7.0 mi West 9.2 mph - N/A   Clear
11:35 AM 74.1 °F 41.0 °F 30% 29.81 in 7.0 mi West 11.5 mph - N/A   Clear
11:55 AM 74.5 °F 41.2 °F 30% 29.80 in 10.0 mi West 11.5 mph - N/A   Clear
12:15 PM 75.9 °F 41.4 °F 29% 29.79 in 10.0 mi West 12.7 mph - N/A   Clear
12:35 PM 76.8 °F 42.3 °F 29% 29.79 in 10.0 mi West 11.5 mph - N/A   Clear
12:55 PM 77.7 °F 41.9 °F 28% 29.78 in 10.0 mi WSW 9.2 mph - N/A   Clear
1:15 PM 79.0 °F 42.6 °F 27% 29.78 in 10.0 mi SW 8.1 mph - N/A   Clear
1:35 PM 79.2 °F 40.1 °F 25% 29.77 in 10.0 mi WSW 6.9 mph - N/A   Clear
1:55 PM 80.8 °F 39.7 °F 23% 29.76 in 10.0 mi WSW 8.1 mph - N/A   Clear
2:15 PM 82.2 °F 39.7 °F 22% 29.75 in 10.0 mi WSW 11.5 mph 16.1 mph N/A   Clear
2:35 PM 82.4 °F 37.6 °F 20% 29.75 in 10.0 mi WSW 13.8 mph - N/A   Clear
2:55 PM 83.1 °F 38.3 °F 20% 29.74 in 10.0 mi WSW 15.0 mph 20.7 mph N/A   Clear
3:15 PM 83.8 °F 37.4 °F 19% 29.73 in 10.0 mi WSW 17.3 mph - N/A   Clear
3:55 PM 85.1 °F 37.8 °F 19% 29.71 in 10.0 mi WSW 17.3 mph 21.9 mph N/A   Clear
4:15 PM 85.1 °F 38.5 °F 19% 29.71 in 10.0 mi SW 11.5 mph 16.1 mph N/A   Clear
4:35 PM 85.5 °F 38.1 °F 19% 29.70 in 10.0 mi SW 10.4 mph 20.7 mph N/A   Clear
4:55 PM 85.5 °F 37.8 °F 18% 29.70 in 10.0 mi WSW 15.0 mph - N/A   Clear
5:15 PM 85.1 °F 37.2 °F 18% 29.69 in 10.0 mi SW 15.0 mph 19.6 mph N/A   Clear
5:35 PM 85.1 °F 39.0 °F 20% 29.69 in 10.0 mi SW 13.8 mph 20.7 mph N/A   Clear
5:55 PM 84.2 °F 41.7 °F 22% 29.69 in 10.0 mi WSW 9.2 mph 16.1 mph N/A   Clear
6:15 PM 84.0 °F 44.4 °F 25% 29.69 in 10.0 mi SSW 12.7 mph 17.3 mph N/A   Clear
6:35 PM 83.3 °F 43.9 °F 25% 29.69 in 10.0 mi SW 11.5 mph 20.7 mph N/A   Clear
7:15 PM 81.0 °F 46.4 °F 30% 29.68 in 10.0 mi SSW 8.1 mph - N/A   Clear
7:35 PM 79.2 °F 47.5 °F 33% 29.68 in 10.0 mi South 4.6 mph - N/A   Clear
7:55 PM 75.0 °F 47.7 °F 38% 29.68 in 10.0 mi SSE 5.8 mph - N/A   Clear
8:15 PM 71.6 °F 47.8 °F 43% 29.68 in 10.0 mi SSE 6.9 mph - N/A   Clear
8:35 PM 68.0 °F 47.3 °F 47% 29.68 in 10.0 mi SE 6.9 mph - N/A   Clear
8:55 PM 66.4 °F 47.3 °F 50% 29.67 in 10.0 mi SE 6.9 mph - N/A   Clear
9:15 PM 64.0 °F 47.3 °F 54% 29.67 in 10.0 mi SE 6.9 mph - N/A   Clear
9:35 PM 63.0 °F 46.6 °F 55% 29.67 in 10.0 mi SSE 6.9 mph - N/A   Clear
9:55 PM 63.7 °F 45.1 °F 51% 29.67 in 10.0 mi SSE 6.9 mph - N/A   Clear
10:15 PM 63.5 °F 44.8 °F 51% 29.67 in 10.0 mi SSE 6.9 mph - N/A   Clear
10:35 PM 63.0 °F 44.8 °F 51% 29.67 in 10.0 mi SSE 8.1 mph - N/A   Clear
10:55 PM 63.1 °F 45.1 °F 52% 29.66 in 10.0 mi SSE 8.1 mph - N/A   Clear
11:15 PM 62.2 °F 45.7 °F 55% 29.66 in 10.0 mi SSE 8.1 mph - N/A   Clear
11:35 PM 62.1 °F 46.4 °F 56% 29.65 in 10.0 mi SSE 6.9 mph - N/A   Clear
11:55 PM 61.0 °F 46.4 °F 59% 29.65 in 10.0 mi SSE 8.1 mph - N/A   Clear